Weather History for Ely, NV

Change the Weather History Date:

Saturday, December 8, 2012

  Actual Average Record
Temperature  
Mean Temperature 30 °F 26 °F  
Max Temperature 47 °F 40 °F 64 °F (1940)
Min Temperature 13 °F 12 °F -19 °F (1951)
Degree Days  
Heating Degree Days 35 39  
Month to date heating degree days 215 307  
Since 1 July heating degree days 1637 2175  
Cooling Degree Days 0 0  
Month to date cooling degree days 0 0  
Year to date cooling degree days 314 218  
Moisture  
Dew Point 15 °F    
Average Humidity 58    
Maximum Humidity 88    
Minimum Humidity 28    
Precipitation  
Precipitation 0.00 in 0.02 in 0.25 in (1972)
Month to date precipitation 0.15 0.13  
Year to date precipitation 10.67 9.30  
Snow  
Snow 0.00 in 0.20 in 3.30 in (1972)
Month to date snowfall T 1.6  
Since 1 July snowfall 10.0 11.1  
Snow Depth 0.00 in    
Sea Level Pressure  
Sea Level Pressure 30.02 in    
Wind  
Wind Speed 6 mph (West)    
Max Wind Speed 17 mph    
Max Gust Speed 22 mph    
Visibility 10 miles    
Events      
T = Trace of Precipitation, MM = Missing Value Source: NWS Daily Summary

Daily Weather History Graph

Daily Weather History Graph

Search for Another Location

Airport:

Trip Planner

Search our weather history database for the weather conditions in past years. The results will help you decide how hot, cold, wet, or windy it might be!

Date:

Astronomy

Dec. 08, 2012 Rise Set
Actual Time 6:47 AM PST 4:16 PM PST
Civil Twilight 6:17 AM PST 4:46 PM PST
Nautical Twilight 5:43 AM PST 5:19 PM PST
Astronomical Twilight 5:11 AM PST 5:52 PM PST
Moon 1:17 AM PST (12/8) 12:47 PM PST (12/8)
Length of Visible Light 10h 28m
Length of Day
9h 29m
Waning Crescent, 27% of the Moon is Illuminated
Dec 8
Waning Crescent
Dec 13
New
Dec 19
First Quarter
Dec 28
Full
Jan 4
Last Quarter

Hourly Weather History & Observations

Time (PST) Temp. Windchill Dew Point Humidity Pressure Visibility Wind Dir Wind Speed Gust Speed Precip Events Conditions
12:53 AM 19.0 °F 10.0 °F 14.0 °F 81% 30.02 in 10.0 mi South 6.9 mph - N/A   Clear
1:53 AM 17.1 °F 7.6 °F 12.9 °F 84% 30.02 in 10.0 mi SSE 6.9 mph - N/A   Clear
2:53 AM 15.1 °F 9.4 °F 12.0 °F 88% 30.02 in 10.0 mi SE 3.5 mph - N/A   Clear
3:53 AM 17.1 °F 11.7 °F 12.0 °F 81% 30.02 in 10.0 mi SSW 3.5 mph - N/A   Clear
4:53 AM 15.1 °F 6.4 °F 10.9 °F 84% 30.04 in 10.0 mi SSE 5.8 mph - N/A   Clear
5:53 AM 15.1 °F 7.7 °F 10.0 °F 80% 30.07 in 10.0 mi South 4.6 mph - N/A   Clear
6:53 AM 12.9 °F - 9.0 °F 84% 30.10 in 10.0 mi Calm Calm - N/A   Clear
7:53 AM 26.1 °F - 15.1 °F 63% 30.07 in 10.0 mi Calm Calm - N/A   Clear
8:53 AM 39.0 °F - 12.0 °F 33% 30.03 in 10.0 mi Calm Calm - N/A   Clear
9:53 AM 42.1 °F 37.7 °F 15.1 °F 34% 30.03 in 10.0 mi NNW 6.9 mph - N/A   Clear
10:53 AM 43.0 °F 36.4 °F 16.0 °F 34% 30.01 in 10.0 mi West 12.7 mph - N/A   Clear
11:53 AM 45.0 °F 38.5 °F 16.0 °F 31% 29.99 in 10.0 mi NNW 13.8 mph 19.6 mph N/A   Clear
12:53 PM 46.0 °F 39.9 °F 16.0 °F 30% 29.97 in 10.0 mi West 13.8 mph - N/A   Clear
1:53 PM 46.0 °F 41.9 °F 16.0 °F 30% 29.96 in 10.0 mi West 8.1 mph - N/A   Overcast
2:53 PM 44.1 °F 39.5 °F 16.0 °F 32% 29.98 in 10.0 mi NW 8.1 mph - N/A   Scattered Clouds
3:53 PM 39.9 °F 36.7 °F 16.0 °F 38% 29.99 in 10.0 mi NW 4.6 mph - N/A   Clear
4:53 PM 33.1 °F 30.0 °F 15.1 °F 48% 30.04 in 10.0 mi WNW 3.5 mph - N/A   Clear
5:53 PM 30.0 °F 24.1 °F 15.1 °F 54% 30.06 in 10.0 mi WNW 5.8 mph - N/A   Clear
6:53 PM 30.0 °F 23.2 °F 16.0 °F 56% 30.09 in 10.0 mi WNW 6.9 mph - N/A   Clear
7:53 PM 32.0 °F 24.8 °F 17.1 °F 54% 30.05 in 10.0 mi West 8.1 mph - N/A   Clear
8:53 PM 30.9 °F - 17.1 °F 57% 30.01 in 10.0 mi Calm Calm - N/A   Mostly Cloudy
9:53 PM 34.0 °F 24.6 °F 18.0 °F 52% 30.00 in 10.0 mi NNW 13.8 mph - N/A   Overcast
10:53 PM 33.1 °F 24.9 °F 17.1 °F 52% 30.02 in 10.0 mi NW 10.4 mph - N/A   Overcast
11:53 PM 28.0 °F 21.7 °F 18.0 °F 66% 30.04 in 10.0 mi NW 5.8 mph - N/A   Mostly Cloudy